Other Public Products
Issued by NWS Grand Forks, ND

Home | Current Version | Previous Version | Text Only | Print | Product List | Glossary Off
Versions: 1 2 3 4 5 6 7 8 9 10 11 12 13 14 15 16 17 18 19 20 21 22 23 24 25 26 27 28 29 30 31 32 33 34 35 36 37 38 39 40 41 42 43 44 45 46 47 48 49 50

000
FPUS83 KFGF 051310
OPUFGF
PRAIRIE TO PINES WEATHER ROUNDUP
NATIONAL WEATHER SERVICE EASTERN NORTH DAKOTA/GRAND FORKS ND
800 AM CDT TUE MAY 05 2015

 **SATELLITE DATA USED TO AUGMENT SKY COVER AT AUTOMATED STATIONS**
 *****  WEATHER ACROSS EASTERN NORTH DAKOTA  *****

CITY           SKY/WX    TMP DP  RH WIND       PRES   REMARKS
GRAND FORKS    MOSUNNY   49  31  49 S8        30.18R
GRAND FORKS AF MOSUNNY   52  29  42 S9        30.17R
GRAND CITY NWS   N/A     48 N/A N/A S5          N/A
BUXTON         NOT AVBL
DEVILS LAKE    CLOUDY    54  34  47 SE15      30.12F
FARGO          SUNNY     55  28  35 SE10      30.18S
WAHPETON ARPT  SUNNY     50  30  46 SE6       30.19S
$$

 *****  WEATHER ACROSS CENTRAL AND WESTERN NORTH DAKOTA  *****

CITY           SKY/WX    TMP DP  RH WIND       PRES   REMARKS
JAMESTOWN      MOSUNNY   53  31  42 S12       30.13F
BISMARCK       CLOUDY    53  32  44 S16       30.06S
MINOT          MOSUNNY   56  29  35 SE14G23   30.02F
MINOT AFB      MOSUNNY   54  32  42 SE14      30.01F
GARRISON         N/A     54  31  41 SE15      30.01F
WILLISTON      SUNNY     52  28  39 VRB6      29.95S
DICKINSON      SUNNY     47  31  53 SE15      29.96F
HETTINGER      MOSUNNY   49  30  48 SE12      30.00F
$$

 *****  OTHER OBSERVATIONS NORTHEAST NORTH DAKOTA  *****

CITY           SKY/WX    TMP DP  RH WIND       PRES   REMARKS
WALHALLA       FAIR      59  27  29 S12       30.13S
LANGDON        CLOUDY    54  28  37 S15       30.14S
CAVALIER       FAIR      50  28  43 S6        30.16R HAZE
GRAFTON        FAIR      46  30  53 SE8       30.18R
CANDO          CLOUDY    54  36  50 SE13      30.12S
FORT TOTTEN      N/A     52  31  45 S10       29.95S
ROLLA          NOT AVBL
RUGBY          NOT AVBL
 ***** THE ABOVE OBSERVATIONS ARE NON NWS ARE NOT QUALITY
        CONTROLLED AND MAY MIS-REPORT RAIN FOR SNOW...
$$

 *****  OTHER OBSERVATIONS SOUTHEAST NORTH DAKOTA *****

CITY           SKY/WX    TMP DP  RH WIND       PRES   REMARKS
COOPERSTOWN    NOT AVBL
VALLEY CITY    FAIR      54  30  40 S12       30.16S
OAKES            N/A     52  36  54 E7        30.15S
GWINNER        SUNNY     54  32  43 SE9       30.17F
SHEYENNE NWR     N/A     47  34  60 E2        29.95S
BUFFALO        NOT AVBL
WYNDMERE       NOT AVBL
 ***** THE ABOVE OBSERVATIONS ARE NON NWS ARE NOT QUALITY
       CONTROLLED AND MAY MIS-REPORT RAIN FOR SNOW...
$$

  *****  WEATHER ACROSS NORTHERN MINNESOTA  *****

CITY           SKY/WX    TMP DP  RH WIND       PRES   REMARKS
FLAG ISLAND    SUNNY     48  39  71 S8        30.19R
WARROAD        SUNNY     54  32  43 S7        30.20S
ROSEAU         SUNNY     52  30  43 S9        30.19S
HALLOCK        SUNNY     52  28  40 S10       30.17R
THF RVR FALLS  SUNNY     54  27  35 S10       30.21R
HALSTAD        NOT AVBL
FOSSTON        SUNNY     55  27  33 SE7       30.20F
BAUDETTE       SUNNY     47  35  63 S5        30.22R
WASKISH        SUNNY     54  34  47 CALM      30.22S
CROOKSTON      SUNNY     54  28  37 S9        30.19S
$$
  *****  WEATHER ACROSS CENTRAL AND WEST MINNESOTA  *****

CITY           SKY/WX    TMP DP  RH WIND       PRES   REMARKS
BEMIDJI        SUNNY     47  35  63 CALM      30.23S
PARK RAPIDS    SUNNY     51  29  42 SE7       30.22S
WADENA         SUNNY     45  30  57 E6        30.22R
DETROIT LAKES  SUNNY     52  28  40 SE9       30.22R
MOORHEAD       SUNNY     54  28  37 SE6       30.19S
FERGUS FALLS   SUNNY     54  27  35 SE8       30.20S
ELBOW LAKE     FAIR      53  30  41 E10       30.19R
MORRIS MN      SUNNY     55  27  33 E15       30.16F
STAPLES        SUNNY     46  30  53 E3        30.22S
WHEATON        SUNNY     46  28  49 CALM      30.19F
$$
  *****  WEATHER ELSEWHERE ACROSS MINNESOTA  *****

CITY           SKY/WX    TMP DP  RH WIND       PRES   REMARKS
DULUTH         SUNNY     52  29  41 E6        30.28R
INTRNTL FALLS  SUNNY     48  32  53 CALM      30.23S
ELY            SUNNY     45  34  65 CALM      30.27S
CLOQUET        SUNNY     48  27  43 E3        30.27R
BRAINERD       SUNNY     49  34  56 CALM      30.24R
HIBBING        SUNNY     46  30  53 CALM      30.27R
ALEXANDRIA     SUNNY     53  25  33 E10       30.21S
SAINT CLOUD    SUNNY     52  31  44 E9        30.21S
MINNEAPOLIS    MOSUNNY   55  39  54 E12       30.20R
$$

  *****  WEATHER ACROSS SOUTH DAKOTA  *****

CITY           SKY/WX    TMP DP  RH WIND       PRES   REMARKS
SIOUX FALLS    PTSUNNY   55  38  52 NE3       30.10F
BROOKINGS      MOSUNNY   54  28  37 E8        30.14S
WATERTOWN      MOSUNNY   54  25  32 E7        30.16R
HURON          MOSUNNY   52  34  50 E10       30.11F
SISSETON         N/A     50  35  56 CALM      30.16F
ABERDEEN       MOSUNNY   51  34  52 SE7       30.14S
MITCHELL       MOSUNNY   50  36  58 E3        30.10F
PIERRE         PTSUNNY   54  40  59 SE12      30.06S
MOBRIDGE       MOSUNNY   57  37  47 SE10      30.06R
RAPID CITY     SUNNY     42  36  79 SE9       30.00S
$$

  *****  SOME WEATHER IN NEARBY STATES *****

CITY           SKY/WX    TMP DP  RH WIND       PRES   REMARKS
GLASGOW MT     SUNNY     47  35  63 SE15      29.83R
GREAT FALLS MT PTCLDY    49  34  56 W14       29.76S
CHEYENNE WY    FOG       43  43 100 S13       30.00S VSB 1/4
SCOTTSBLUFF NE CLOUDY    48  45  89 SE9       30.01S FOG
OMAHA NE       CLOUDY    61  59  93 SE6       30.08R
DES MOINES IA  LGT RAIN  63  60  90 S10       30.10S FOG
DAVENPORT IA   CLOUDY    58  56  93 SE8       30.17R FOG
CHICAGO IL     CLOUDY    51  50  96 NE12      30.17S
EAU CLAIRE WI  PTSUNNY   54  36  50 SE9       30.25R
LA CROSSE WI   LGT RAIN  55  46  71 SE6       30.23R
$$

  *****  SOME NATIONAL WEATHER *****

CITY           SKY/WX    TMP DP  RH WIND       PRES   REMARKS
LA GUARDIA NY  PTSUNNY   72  50  45 W3        30.19S
RALEIGH NC     MOSUNNY   68  56  65 SW10      30.36S
ATLANTA GA     SUNNY     66  54  65 E5        30.35R
NEW ORLEANS LA MOSUNNY   74  63  68 E8        30.17R
OKLAHOMA CITY  PTSUNNY   62  55  77 SE10      30.03R
ALBUQUERQUE NM MOCLDY    51  48  89 S8        29.96R
SALT LAKE CITY CLOUDY    58  44  60 SE7       29.84S
LOS ANGELES CA CLOUDY    59  50  72 CALM      29.99R
BOISE ID       CLEAR     53  34  48 NW7       29.82R
SEATTLE WA     MOCLDY    47  43  86 S12       29.99S
$$

*** WEATHER ACROSS MANITOBA...SASKATCHEWAN AND ONTARIO ***
                ***ONTARIO***

CITY           SKY/WX    TMP DP  RH WIND       PRES   REMARKS
GERALDTON      MOSUNNY   46  30  53 W7        30.27S
THUNDER BAY    SUNNY     46  34  61 SW6       30.30S
SIOUX LOOKOUT  MOSUNNY   45  34  65 S2        30.22S
TORONTO        PTSUNNY   55  39  54 NE5       30.30R
BIG TROUT LK   SUNNY     34  23  64 W8        30.21R
PICKLE LAKE    PTSUNNY   43  27  52 NW3       30.23S
DRYDEN         SUNNY     48  34  57 SW7       30.22R
KENORA         MOSUNNY   50  34  53 S7        30.21R
$$
                *** MANITOBA***

CITY           SKY/WX    TMP DP  RH WIND       PRES   REMARKS
BRANDON        PTSUNNY   48  32  53 E5        30.07S
DAUPHIN        SUNNY     43  37  81 SW2       30.04F
ISLAND LAKE    MOSUNNY   34  21  60 SE5       30.23S
PILOT MOUND      N/A     52  30  43 S13         N/A
THE PAS        LGT RAIN  36  27  69 E9        30.12S
THOMPSON       NOT AVBL
WINNIPEG       MOSUNNY   52  27  37 S9        30.14S
LYNN LAKE      SUNNY     30  19  64 W3        30.19R
CHURCHILL      MOSUNNY   19  12  73 NW23G30   30.14R WCI   2
GILLAM         MOSUNNY   28  21  74 W8        30.21R WCI  20
$$
                ***SASKATCHEWAN***

CITY           SKY/WX    TMP DP  RH WIND       PRES   REMARKS
ESTEVAN        MOSUNNY   52  34  50 SE16      29.96F
KINDERSLEY     MOSUNNY   43  39  87 NE12      29.71S
LLOYDMINSTER   PTSUNNY   43  32  65 E23G31    29.78F
PRINCE ALBERT  CLOUDY    45  34  65 E15G22    29.94F
REGINA         PTSUNNY   48  34  57 SE16G24   29.88F


USA.gov is the U.S. government's official web portal to all federal, state and local government web resources and services.